Weather History for KLWD - October, 2013

Change the Weather History Date:

Monday, October 21, 2013

  Actual Average Record
Temperature  
Mean Temperature 45 °F 51 °F  
Max Temperature 51 °F 62 °F 83 °F (1978)
Min Temperature 38 °F 41 °F 26 °F (1976)
Degree Days  
Heating Degree Days 20 14  
Month to date heating degree days 188 224  
Since 1 July heating degree days 236 324  
Cooling Degree Days 0 0  
Month to date cooling degree days 30 11  
Year to date cooling degree days 1093 944  
Moisture  
Dew Point 31 °F    
Average Humidity 59    
Maximum Humidity 79    
Minimum Humidity 39    
Precipitation  
Precipitation 0.00 in 0.11 in 1.23 in (2001)
Month to date precipitation 0.87 1.87  
Sea Level Pressure  
Sea Level Pressure 30.04 in    
Wind  
Wind Speed 8 mph (NW)    
Max Wind Speed 20 mph    
Max Gust Speed 25 mph    
Visibility 10 miles    
Events      
T = Trace of Precipitation, MM = Missing Value Source: NWS Daily Summary

Daily Weather History Graph

Daily Weather History Graph

Search for Another Location

Airport or City:

Trip Planner

Search our weather history database for the weather conditions in past years. The results will help you decide how hot, cold, wet, or windy it might be!

Date:

Astronomy

Oct. 21, 2013 Rise Set
Actual Time 7:33 AM CDT 6:26 PM CDT
Civil Twilight 7:05 AM CDT 6:53 PM CDT
Nautical Twilight 6:33 AM CDT 7:25 PM CDT
Astronomical Twilight 6:02 AM CDT 7:57 PM CDT
Moon 8:18 PM CDT (10/21) 10:09 AM CDT (10/21)
Length of Visible Light 11h 48m
Length of Day
10h 52m
Waning Gibbous, 92% of the Moon is Illuminated
Oct 21
Waning Gibbous
Oct 26
Last Quarter
Nov 3
New
Nov 9
First Quarter
Nov 17
Full

Hourly Weather History & Observations

Time (CDT) Temp. Windchill Dew Point Humidity Pressure Visibility Wind Dir Wind Speed Gust Speed Precip Events Conditions
12:53 AM 45.0 °F 39.7 °F 36.0 °F 71% 29.97 in 10.0 mi NNW 10.4 mph 20.7 mph N/A   Clear
1:53 AM 42.1 °F 37.1 °F 35.1 °F 76% 29.99 in 10.0 mi NW 8.1 mph - N/A   Clear
2:36 AM 39.2 °F 35.0 °F 35.6 °F 87% 29.99 in 10.0 mi WNW 5.8 mph - N/A   Mostly Cloudy
2:53 AM 41.0 °F 35.8 °F 36.0 °F 82% 30.01 in 10.0 mi NW 8.1 mph - N/A   Overcast
3:10 AM 41.0 °F 35.8 °F 35.6 °F 81% 30.00 in 10.0 mi NW 8.1 mph - N/A   Overcast
3:53 AM 39.0 °F 34.0 °F 34.0 °F 82% 30.01 in 10.0 mi NW 6.9 mph - N/A   Mostly Cloudy
4:53 AM 41.0 °F 34.7 °F 30.0 °F 65% 30.03 in 10.0 mi North 10.4 mph - N/A   Overcast
5:53 AM 37.9 °F 34.4 °F 30.0 °F 73% 30.05 in 10.0 mi North 4.6 mph - N/A   Overcast
6:53 AM 39.0 °F 36.8 °F 32.0 °F 76% 30.06 in 10.0 mi NNW 3.5 mph - N/A   Overcast
7:53 AM 39.0 °F 34.8 °F 32.0 °F 76% 30.08 in 10.0 mi West 5.8 mph - N/A   Overcast
8:53 AM 41.0 °F 35.8 °F 34.0 °F 76% 30.09 in 10.0 mi WNW 8.1 mph - N/A   Overcast
9:53 AM 43.0 °F 37.2 °F 34.0 °F 71% 30.10 in 10.0 mi NNW 10.4 mph - N/A   Scattered Clouds
10:53 AM 44.1 °F 39.0 °F 32.0 °F 63% 30.10 in 10.0 mi NW 9.2 mph - N/A   Mostly Cloudy
11:53 AM 46.9 °F - 25.0 °F 42% 30.09 in 10.0 mi NW 12.7 mph - N/A   Partly Cloudy
12:53 PM 50.0 °F - 27.0 °F 41% 30.07 in 10.0 mi WNW 10.4 mph 17.3 mph N/A   Partly Cloudy
1:53 PM 50.0 °F - 27.0 °F 41% 30.05 in 10.0 mi West 15.0 mph 19.6 mph N/A   Scattered Clouds
2:53 PM 50.0 °F - 28.0 °F 43% 30.04 in 10.0 mi WNW 12.7 mph - N/A   Overcast
3:53 PM 50.0 °F - 28.0 °F 43% 30.03 in 10.0 mi WNW 13.8 mph 19.6 mph N/A   Mostly Cloudy
4:53 PM 48.9 °F - 28.0 °F 44% 30.04 in 10.0 mi West 10.4 mph - N/A   Overcast
5:53 PM 48.0 °F - 28.9 °F 48% 30.04 in 10.0 mi WNW 8.1 mph - N/A   Overcast
6:53 PM 45.0 °F 43.5 °F 28.9 °F 53% 30.04 in 10.0 mi NW 3.5 mph - N/A   Scattered Clouds
7:53 PM 43.0 °F - 28.0 °F 56% 30.04 in 10.0 mi Calm Calm - N/A   Clear
8:53 PM 42.1 °F - 28.9 °F 60% 30.04 in 10.0 mi Calm Calm - N/A   Partly Cloudy
9:53 PM 42.1 °F 39.2 °F 28.9 °F 60% 30.02 in 10.0 mi South 4.6 mph - N/A   Mostly Cloudy
10:53 PM 44.1 °F 41.5 °F 30.0 °F 58% 30.02 in 10.0 mi SSE 4.6 mph - N/A   Overcast
11:53 PM 43.0 °F 41.3 °F 30.9 °F 62% 30.01 in 10.0 mi SSE 3.5 mph - N/A   Overcast